Flag for United Kingdom Weather past 2 weeks in Brentwood, England, United Kingdom

Now
48 °F

Cool.


Feels Like: 43 °F
Forecast: 39 / 52 °F
Wind: 10 mph from Southwest

Location: Gravesend-Broadness

Current Time: Mar 6, 2015 at 11:25:35 AM

Latest Report: Mar 6, 2015 at 10:00 AM


Visibility: N/A

Pressure: 30.59 "Hg

Humidity: 63%

Dew point: 36 °F

Location of BrentwoodLocation

Historic Weather in Brentwood — Graph

°F

Brentwood temperature yesterday

Maximum temperature yesterday: 52 °F (at 4:00 PM)
Minimum temperature yesterday: 33 °F (at 6:00 AM)
Average temperature yesterday: 44 °F

Past Weeks' High & Low Weather Summary

 TemperatureHumidityPressure
High53 °F (Mar 1, 3:00 PM)93% (Feb 20, 1:00 AM)30.71 "Hg (Feb 20, 1:00 AM)
Low28 °F (Feb 22, 7:00 AM)40% (Mar 2, 4:00 PM)29.23 "Hg (Feb 22, 11:00 PM)
Average43 °F74%29.86 "Hg
* Reported Feb 19 10:00 AM — Mar 6 10:00 AM, Brentwood, Weather by CustomWeather, © 2015

Note: Actual official high and low records may vary slightly from our data, if they occured in-between our weather recording intervals... More about our weather records

Advertising

Brentwood weather history for previous 24 hours

 ConditionsComfort  
Time TempWeatherWind HumidityBarometerVisibility
10:00 AM
Fri, Mar 6
48 °FCool.10 mph63%30.59 "HgN/A
9:00 AM46 °FCool.8 mph69%30.61 "HgN/A
8:00 AM43 °FQuite cool.6 mph73%30.60 "HgN/A
7:00 AM40 °FQuite cool.7 mph73%30.59 "HgN/A
6:00 AM44 °FQuite cool.6 mph66%30.60 "HgN/A
5:00 AM46 °FCool.10 mph65%30.60 "HgN/A
4:00 AM46 °FCool.8 mph66%30.60 "HgN/A
2:00 AM46 °FCool.10 mph65%30.61 "HgN/A
1:00 AM46 °FCool.12 mph66%30.63 "HgN/A
12:00 AM46 °FCool.15 mph64%30.63 "HgN/A
11:00 PM
Thu, Mar 5
47 °FCool.9 mph65%30.63 "HgN/A
10:00 PM47 °FCool.10 mph66%30.63 "HgN/A
8:00 PM47 °FCool.9 mph66%30.63 "HgN/A
7:00 PM47 °FCool.9 mph64%30.63 "HgN/A
6:00 PM48 °FCool.10 mph60%30.63 "HgN/A
5:00 PM51 °FCool.14 mph54%30.63 "HgN/A
4:00 PM52 °FCool.10 mph56%30.63 "HgN/A
3:00 PM51 °FCool.12 mph56%30.64 "HgN/A
2:00 PM50 °FCool.9 mph59%30.65 "HgN/A
1:00 PM50 °FCool.9 mph58%30.66 "HgN/A
12:00 PM48 °FCool.9 mph61%30.68 "HgN/A
11:00 AM47 °FCool.12 mph61%30.69 "HgN/A
Weather by CustomWeather, © 2015

See weather overviewHow to use our weather pages